Temp
19 18 18 18 19 20 21 22 23 23 24 24 24 24 23 23 23 26 28 29 30 28 27 28 27 28 28 28 30 28 24 21 20 20 19 19 19 18 18 18 18 18 17 17 16 17 18 18 18 18 18 18 18 17 17 17 17 17 19 20 20 21 21 21 21 21 20 20 20 20 20 20 20 20 20 20 20 20 20 20 19 19 18 19 20 20
19 17 17 19 20 21 22 22 23 24 24 24 24 24 23 23 24 27 28 29 30 28 26 28 28 28 28 28 29 27 23 21 20 20 19 19 18 18 18 18 18 17 16 16 16 16 17 17 17 18 17 18 18 18 18 18 17 17 19 20 20 20 21 20 20 21 20 20 20 20 20 20 20 19 20 20 19 19 19 19 19 19 19 19 20 20
18 17 18 20 21 22 22 23 23 23 24 23 23 23 22 24 25 26 28 29 30 28 26 27 27 27 29 29 28 26 23 21 21 20 19 19 18 18 18 18 17 17 16 17 17 16 17 17 17 18 17 18 19 18 17 17 17 17 19 20 20 20 20 20 20 20 20 20 20 21 20 20 19 19 20 20 19 19 19 19 19 19 19 19 19 19
17 18 20 21 21 22 22 23 23 23 23 23 23 22 22 24 24 24 26 28 30 29 27 27 27 27 29 28 25 23 22 21 21 20 19 19 19 19 19 18 17 17 17 17 17 17 17 17 16 17 16 17 18 17 17 17 17 18 19 19 19 20 20 20 20 20 20 20 20 20 20 19 19 19 19 19 19 19 19 19 19 18 19 19 19 19
18 19 21 21 22 22 22 22 23 22 22 22 23 23 22 24 24 24 27 29 29 29 29 27 24 25 28 26 22 22 22 21 21 20 19 19 19 19 18 17 17 18 17 17 17 17 17 17 16 16 16 17 17 17 17 17 17 18 18 18 19 19 19 19 20 20 20 20 19 19 18 18 18 18 18 18 19 19 19 19 19 19 19 19 19 19
19 21 22 21 21 22 22 22 23 22 21 22 23 24 24 25 25 26 28 28 25 24 28 27 22 22 26 24 21 21 21 20 20 19 19 19 19 18 18 18 18 18 18 18 18 17 17 17 17 17 17 17 17 16 17 18 18 17 17 18 19 19 19 19 19 20 20 19 19 19 18 17 17 17 18 19 19 19 19 19 19 19 19 19 19 19
20 22 22 21 21 22 22 22 23 23 21 21 23 25 25 25 25 25 27 26 22 22 27 28 23 21 24 23 20 21 21 20 20 20 19 19 18 19 18 18 18 18 18 18 18 18 18 17 17 17 18 18 18 17 17 18 18 17 17 18 19 19 19 19 19 19 19 19 19 19 19 18 18 18 18 19 19 19 20 19 19 19 19 18 19 18
21 22 22 22 22 22 21 21 23 24 22 21 24 26 25 26 25 25 25 24 24 25 26 28 25 22 22 22 21 21 21 20 20 20 19 19 19 19 19 18 18 18 18 18 18 18 18 17 18 18 19 19 19 18 17 17 17 16 17 18 19 19 18 18 18 18 19 19 19 19 19 19 19 19 18 18 18 19 19 19 19 18 18 18 18 18
22 22 22 22 21 21 22 22 24 25 23 23 26 26 26 26 26 26 25 24 25 25 22 24 26 22 22 22 21 21 21 20 20 20 19 19 19 19 19 18 19 19 19 19 18 18 18 18 19 19 19 18 17 17 16 16 17 16 17 18 19 18 18 18 18 17 18 18 19 19 19 19 19 19 19 18 18 19 19 19 18 18 18 18 18 18
22 22 23 23 22 22 23 24 25 25 24 25 26 26 26 26 26 26 25 24 24 23 21 22 24 22 21 22 21 21 21 20 21 20 20 20 19 19 19 19 19 19 19 19 19 19 19 19 19 19 18 17 16 16 16 17 17 17 17 18 18 17 17 17 17 17 18 18 18 19 19 19 19 18 18 18 19 18 18 18 18 18 18 18 18 18
23 23 24 24 23 23 24 24 25 25 25 26 26 25 25 26 26 26 25 24 22 21 21 23 24 23 22 22 22 21 22 22 21 21 20 20 20 20 19 19 19 19 19 19 19 19 19 19 19 18 17 16 16 16 17 17 17 17 17 17 17 17 17 17 17 17 17 18 18 18 18 19 19 18 18 18 18 18 18 18 18 18 18 18 17 17
23 23 23 24 25 25 25 24 25 26 26 26 25 24 23 23 24 23 23 23 21 21 22 24 25 23 21 22 24 23 24 23 22 22 21 20 20 20 20 20 20 20 20 19 19 19 18 17 18 17 16 16 16 16 17 17 17 17 17 17 17 17 17 17 17 17 17 17 18 18 18 19 19 19 18 18 18 18 18 18 18 18 17 17 16 16
22 23 23 24 25 25 24 24 24 25 25 25 25 23 22 21 21 21 21 21 21 21 23 24 25 23 21 24 27 26 24 24 23 23 22 20 20 20 20 20 20 20 20 19 19 18 17 17 17 16 16 16 16 16 16 16 17 17 17 17 17 17 17 17 17 17 17 17 18 18 18 18 18 18 18 18 18 18 18 18 18 17 17 16 16 15
20 22 24 24 24 25 25 23 22 23 24 24 23 22 21 21 21 21 21 21 21 21 23 25 24 22 22 26 29 27 24 25 24 24 23 21 21 20 20 20 20 20 20 19 18 18 17 17 16 16 16 15 16 16 16 16 17 17 17 17 17 17 17 17 17 17 17 17 17 18 18 18 18 18 18 18 18 18 18 17 17 16 16 15 15 15
19 20 23 23 24 25 25 24 23 24 24 24 25 23 22 21 21 21 21 21 21 21 23 24 23 22 22 26 29 27 25 25 25 24 23 22 22 21 21 20 20 20 20 19 18 18 17 17 16 16 16 16 16 16 16 16 16 17 17 17 17 17 17 17 17 17 17 17 17 17 17 17 17 17 17 17 17 17 17 17 16 16 15 15 14 14
20 20 23 24 25 25 25 25 26 25 23 24 26 24 22 23 23 21 21 21 21 21 22 22 23 23 25 27 29 27 25 25 25 24 23 22 22 21 20 20 20 20 20 18 18 18 17 16 16 16 16 16 16 16 16 16 16 17 17 17 17 17 17 17 17 17 17 17 17 17 17 17 17 17 17 17 17 17 16 16 16 15 15 14 14 14
20 21 24 25 24 25 25 26 27 25 23 24 24 22 23 26 25 22 21 22 21 21 21 22 22 24 25 26 28 26 25 25 24 24 23 23 22 21 20 20 20 20 19 19 18 17 16 16 16 16 16 16 16 16 16 16 16 17 17 17 17 16 16 17 17 17 17 17 17 17 17 17 17 17 17 16 16 16 16 16 15 14 14 14 14 14
21 21 23 24 23 25 26 26 26 26 25 24 22 23 25 26 25 23 21 21 21 21 21 22 22 22 22 24 26 25 24 24 24 23 23 22 22 21 21 20 20 19 19 19 18 16 16 16 16 16 16 15 15 15 16 16 17 17 17 17 16 16 16 16 16 16 16 17 16 16 16 16 16 16 16 16 15 15 15 15 15 14 14 14 13 13
23 21 22 24 24 24 26 25 24 25 26 24 24 26 25 23 22 22 21 21 21 21 21 21 22 22 21 23 25 24 24 24 24 23 23 22 22 21 21 20 20 19 19 18 17 16 16 16 16 16 15 15 16 16 16 17 17 17 17 17 16 16 16 16 16 16 16 16 16 16 16 16 16 15 15 15 15 15 14 14 14 14 13 13 13 13
23 21 21 24 25 24 25 24 22 23 25 25 25 26 25 23 22 22 22 21 21 21 21 21 21 22 23 25 26 26 24 24 24 23 22 22 21 21 20 20 19 19 18 17 17 16 16 16 16 16 15 16 16 16 16 17 17 17 17 16 16 16 16 16 16 16 16 16 16 15 15 15 15 15 15 15 14 14 14 13 13 13 12 12 12 12
23 22 21 23 24 23 23 22 22 22 23 23 23 23 23 24 24 23 23 22 22 21 21 21 21 22 24 25 27 28 26 25 24 23 22 21 21 20 20 20 19 18 17 17 17 16 16 16 15 15 16 16 16 16 17 17 17 17 16 16 16 16 16 15 15 15 15 15 15 15 15 15 15 14 14 14 14 13 13 13 12 12 12 12 12 12
23 22 21 21 22 21 22 23 24 23 24 24 23 23 23 23 23 22 22 22 22 21 21 21 21 22 24 24 25 27 27 25 24 23 21 21 20 20 20 19 19 17 17 17 16 16 16 15 15 15 16 16 16 16 17 17 17 16 16 16 16 16 15 15 15 15 15 15 15 14 14 14 14 14 14 13 13 13 12 12 12 12 11 11 11 12
23 22 21 21 21 22 23 25 25 24 25 25 25 25 25 24 22 21 21 21 22 22 22 22 21 22 24 24 24 27 27 25 24 23 21 21 20 20 20 19 18 17 17 17 16 16 16 15 15 15 15 16 16 16 16 16 16 16 16 16 15 15 15 15 15 15 14 14 14 14 13 13 13 13 13 13 13 12 12 12 12 11 11 11 11 12
23 21 21 20 21 23 24 25 25 25 25 24 25 25 25 25 24 23 23 23 22 22 22 21 21 22 24 23 23 25 27 26 24 23 21 20 20 20 19 18 18 17 17 16 16 16 15 15 15 15 15 15 15 16 16 16 16 16 16 15 15 15 15 15 14 14 14 14 13 13 13 13 13 12 12 12 12 12 11 11 11 11 11 11 12 12
22 21 20 20 20 21 22 22 23 23 24 24 24 25 25 25 25 24 24 23 22 21 22 21 21 22 23 23 22 23 24 24 24 23 22 20 20 20 19 18 18 17 17 16 16 16 15 15 15 15 15 15 16 16 16 16 16 16 15 15 15 15 15 14 14 14 13 13 12 12 12 12 12 12 12 11 11 11 11 11 11 11 11 12 12 12
22 21 21 20 19 19 19 20 21 22 22 23 24 25 25 25 25 24 23 22 21 21 22 21 21 21 22 22 21 21 22 22 22 22 21 21 20 20 19 18 18 18 17 16 16 16 16 16 15 15 15 15 16 16 16 16 16 16 15 15 15 15 14 14 14 13 13 12 12 12 12 12 11 11 11 11 11 11 11 11 11 12 12 12 12 11
22 21 22 21 20 20 20 21 23 23 22 22 23 24 25 25 25 24 22 21 22 22 22 21 21 21 21 21 20 20 20 20 21 21 21 20 20 19 19 19 18 17 17 17 16 16 16 16 15 15 15 16 16 16 16 16 16 15 15 15 14 14 14 14 13 13 12 12 12 11 11 11 11 11 11 11 11 11 11 12 12 12 12 12 11 11
22 21 22 22 21 22 23 23 24 24 22 22 22 23 24 25 25 23 22 22 23 22 21 21 22 21 21 20 20 20 20 20 20 20 20 20 19 19 18 18 18 17 17 17 16 16 15 15 15 15 15 15 16 16 16 15 15 15 14 14 14 14 14 13 13 12 12 11 11 11 11 11 11 11 11 11 11 11 11 12 12 12 12 12 11 11
22 21 22 22 22 23 24 24 24 24 23 23 23 23 24 25 24 23 22 24 24 22 21 22 22 22 21 20 20 20 20 20 19 19 19 19 18 18 18 18 17 17 17 16 16 15 15 15 15 15 15 15 15 15 15 14 14 14 14 14 14 14 13 13 13 12 12 11 11 11 11 11 11 10 10 10 11 11 11 11 12 12 12 11 11 10
22 21 22 22 21 22 23 24 24 24 23 23 23 23 24 24 24 23 23 25 24 23 23 23 23 23 22 20 20 20 19 19 19 18 18 18 18 18 18 18 17 17 16 16 15 15 15 15 15 14 15 15 15 14 14 14 14 14 13 14 14 13 13 13 12 12 11 11 11 11 11 10 10 10 10 11 11 11 11 11 11 11 11 11 10 10
22 21 22 22 21 21 23 24 24 24 23 23 23 24 24 24 24 24 24 25 24 23 23 24 23 22 22 21 20 19 19 19 18 18 18 18 18 18 18 17 17 16 16 15 15 15 15 15 15 14 15 15 14 14 14 13 13 13 13 13 13 13 13 12 12 11 11 11 10 10 10 10 10 11 11 11 11 11 11 11 11 11 11 11 10 10
21 21 21 21 20 21 22 23 23 23 23 23 22 23 24 23 23 24 24 25 25 23 23 23 22 21 20 20 19 19 19 18 18 17 17 17 18 18 17 17 17 16 15 15 14 14 14 15 15 14 14 14 14 14 14 13 13 13 13 13 13 13 12 12 11 11 11 10 10 10 10 10 11 11 11 11 11 11 11 11 11 10 10 10 10 10
21 20 20 20 20 20 22 22 22 22 22 21 21 22 23 23 24 24 24 25 25 25 24 23 21 20 20 20 19 18 18 18 18 17 17 17 17 18 17 17 16 15 15 15 14 14 15 15 15 14 14 14 14 14 14 14 13 13 13 13 13 12 12 12 11 11 10 10 10 10 11 11 11 11 11 11 11 11 10 10 10 10 10 10 10 9
21 21 20 20 20 20 21 22 22 21 20 20 20 21 22 23 24 24 24 25 26 26 24 23 21 21 20 20 19 19 18 18 18 18 17 17 17 17 17 16 15 15 15 14 15 15 15 15 15 14 14 14 14 14 14 14 13 13 13 13 13 12 12 12 11 11 11 11 11 11 11 11 11 11 11 11 11 11 10 10 10 10 10 10 10 9
20 20 20 20 20 21 21 21 20 19 19 20 20 21 22 23 24 24 24 25 26 25 24 22 22 21 21 20 20 19 19 19 19 18 18 18 17 17 16 15 15 15 14 14 15 15 15 15 15 14 14 14 14 14 14 13 13 13 13 13 13 12 12 12 11 11 11 11 11 11 11 11 11 11 11 11 11 11 10 10 10 10 10 10 9 9
21 20 20 20 20 20 20 20 19 19 20 21 21 22 23 23 24 24 23 24 26 25 23 22 22 21 21 21 20 20 20 20 19 18 18 17 17 16 15 14 14 14 14 14 14 14 14 15 15 14 14 14 14 14 13 13 13 13 14 14 13 13 12 12 12 12 12 12 12 12 12 11 11 11 11 11 11 11 10 10 10 10 9 9 9 8
21 20 20 20 20 20 20 19 19 19 20 21 22 22 22 22 22 22 22 23 25 25 23 22 21 21 21 20 20 20 20 19 19 18 17 17 16 15 15 14 14 14 14 14 14 14 14 14 14 14 14 14 14 13 13 13 13 13 14 14 13 13 13 12 12 12 12 12 12 12 12 12 11 11 11 11 11 11 10 10 10 10 9 9 9 8
22 21 20 19 20 20 20 19 19 19 19 20 21 22 22 22 22 23 22 22 24 24 23 21 21 21 20 20 19 19 19 19 18 17 16 16 15 15 15 14 14 14 14 14 14 14 14 14 14 14 14 13 13 13 13 13 13 14 14 14 14 13 13 12 13 13 13 12 12 12 12 12 12 11 11 11 11 11 10 10 10 9 9 9 8 8
21 21 20 20 19 20 20 19 19 19 19 20 21 22 22 23 23 23 22 22 23 24 22 21 21 20 20 19 19 19 19 18 17 16 15 15 15 14 14 14 14 14 14 14 14 13 13 13 13 13 13 13 13 13 13 14 14 14 14 14 14 14 13 13 13 13 13 12 12 12 12 12 12 11 11 11 11 11 10 10 10 9 9 9 9 8
20 20 20 20 19 19 19 19 19 19 19 20 20 21 22 23 23 22 20 20 21 22 22 21 21 20 20 19 19 19 19 19 18 16 15 15 14 14 14 14 14 14 14 14 13 13 13 13 13 13 13 13 13 13 14 14 14 14 14 14 14 14 13 13 13 13 13 12 12 12 12 12 11 11 11 11 11 11 10 10 10 9 9 9 9 9
20 20 19 19 19 19 19 19 19 18 19 20 21 21 22 22 22 20 19 20 20 21 22 22 21 20 20 20 19 19 20 19 18 16 15 15 14 14 14 14 14 14 14 14 13 13 13 13 13 13 13 13 14 14 14 14 14 13 13 13 13 13 13 13 13 13 12 12 12 12 12 12 11 11 11 11 11 11 11 10 10 10 10 9 9 9
19 19 19 19 19 19 19 19 18 18 20 21 21 21 21 21 20 19 19 20 20 20 21 22 21 21 20 20 20 20 19 18 16 15 15 15 14 14 14 14 14 14 14 13 13 13 13 13 13 13 13 13 14 14 14 14 13 13 13 12 12 12 12 12 12 12 12 12 12 12 11 11 11 11 11 11 11 11 11 11 10 10 10 10 9 9
19 19 18 19 19 19 19 19 18 18 20 21 21 20 20 20 19 19 19 20 20 20 21 21 21 21 21 20 20 19 18 16 15 15 15 14 14 14 14 14 14 14 13 13 13 14 14 13 13 13 13 14 14 14 14 13 12 11 11 11 11 12 12 12 12 12 11 11 11 11 11 11 11 11 11 11 11 11 11 11 10 10 10 10 10 10
20 19 18 19 19 19 18 18 18 19 20 21 20 20 19 19 20 20 20 20 20 20 20 21 21 21 20 19 18 18 17 16 15 15 14 14 14 14 14 14 14 14 13 13 14 14 14 14 14 13 13 13 13 13 13 12 11 11 11 10 11 11 11 11 11 11 11 11 11 11 11 11 11 11 11 11 11 11 11 11 10 10 10 10 10 10
18 18 18 18 18 18 18 18 18 18 19 19 20 20 19 20 20 20 20 20 20 20 19 19 20 20 19 18 17 17 16 15 15 15 14 14 14 14 14 14 14 14 14 14 14 14 14 14 14 13 12 13 13 12 12 12 11 10 10 10 10 11 11 11 11 10 10 10 10 10 10 10 10 11 11 11 11 11 11 11 11 11 11 11 11 11
16 17 18 18 18 18 18 18 18 18 17 18 18 19 20 20 20 20 20 20 20 20 18 18 18 18 18 18 17 17 16 16 15 15 14 14 14 14 14 14 14 14 14 14 14 14 14 14 14 13 12 12 12 12 11 12 11 10 10 10 10 10 10 10 10 10 10 10 10 10 10 10 11 11 11 11 11 11 11 11 11 11 11 11 11 11
16 16 17 18 18 18 17 17 17 17 17 17 18 18 19 20 20 20 20 20 20 20 19 18 18 18 18 17 17 16 16 16 15 15 15 15 14 14 14 14 14 14 14 14 14 14 14 14 13 13 12 11 11 11 11 11 11 10 10 10 10 10 10 10 10 10 10 10 10 10 10 10 10 10 10 10 10 10 11 11 11 11 11 11 11 11
16 16 16 17 17 17 16 16 16 16 16 17 17 18 19 20 20 20 20 20 20 20 19 17 17 17 17 17 17 16 16 15 15 15 15 15 14 14 14 14 15 15 14 14 14 14 14 14 13 12 12 11 11 11 11 10 10 10 10 10 10 10 10 10 10 10 10 10 10 10 10 10 10 10 10 10 10 10 10 11 11 11 10 10 10 10
15 15 16 16 16 16 17 17 17 17 17 17 17 18 19 19 20 20 20 20 20 20 19 18 17 17 17 17 16 16 16 15 15 15 14 14 14 14 14 15 15 15 14 14 14 14 14 13 13 12 11 11 11 11 11 10 10 10 11 10 10 10 10 10 10 10 10 10 10 10 10 10 10 9 9 9 10 10 10 10 10 10 10 9 10 10
15 15 15 16 16 16 16 17 17 17 17 17 17 18 19 19 19 20 20 20 20 20 19 18 17 16 16 16 16 16 16 15 15 15 14 14 14 14 14 14 14 14 14 14 14 14 14 13 13 12 11 11 11 11 11 11 11 11 11 11 10 10 10 11 11 11 11 10 10 10 10 9 9 9 9 9 9 9 9 9 9 10 10 9 9 10
15 15 15 15 16 16 17 17 17 17 17 17 18 18 18 19 19 19 20 20 20 20 20 19 17 16 16 16 16 16 16 15 15 14 14 14 14 14 14 14 14 14 14 14 14 13 13 13 12 12 11 11 11 11 11 11 11 11 11 11 11 11 11 11 11 11 11 10 9 9 10 9 9 9 9 9 9 9 8 8 8 8 9 9 9 9
Height
734 742 741 739 736 733 732 731 732 731 729 728 729 733 735 736 734 723 719 713 708 720 725 722 727 726 723 720 716 719 727 737 743 743 744 745 745 748 752 756 759 760 761 762 763 765 765 767 772 775 778 780 783 790 796 802 806 805 803 799 796 797 798 799 799 800 802 804 806 808 809 810 811 812 813 814 816 816 818 820 821 823 825 826 827 830
733 740 737 733 732 728 727 728 729 729 727 727 728 729 730 732 729 719 715 709 703 715 723 719 723 724 719 717 714 719 730 738 741 744 746 747 747 749 750 755 758 759 762 763 763 764 764 766 769 772 776 778 779 783 790 800 806 806 803 800 798 799 799 798 798 799 801 803 805 806 807 808 810 811 812 813 814 815 817 818 820 821 823 824 824 826
736 736 731 728 726 724 726 726 728 729 726 728 728 729 731 727 723 720 712 705 701 711 721 719 722 723 716 712 713 718 728 733 732 733 738 743 747 749 749 752 757 760 762 762 762 761 762 765 766 768 772 775 777 779 785 796 804 805 803 801 799 799 798 798 798 799 801 803 805 805 806 807 808 809 811 812 812 814 816 817 819 821 822 823 824 826
736 731 725 724 723 724 726 724 725 728 726 727 728 732 733 723 723 726 714 705 701 704 713 716 721 722 714 716 723 723 724 729 730 732 735 735 738 741 742 746 751 756 759 760 759 758 758 762 764 766 769 773 777 779 783 791 797 800 801 800 799 798 798 798 799 800 801 802 804 805 805 806 807 808 810 811 812 814 815 817 818 820 821 822 823 824
728 722 718 720 721 722 725 723 723 729 731 727 723 727 729 721 720 719 709 703 701 700 702 712 729 728 716 726 737 731 727 730 735 739 741 738 735 737 740 744 747 750 753 756 756 755 754 758 762 763 767 770 774 778 781 783 788 794 799 798 798 799 800 800 800 800 800 801 803 804 805 807 807 808 809 810 812 813 814 816 817 818 819 820 820 822
720 714 712 718 719 718 723 723 720 725 734 730 719 717 718 716 715 712 704 703 713 717 703 708 741 740 718 730 743 736 736 738 740 743 745 743 739 739 742 745 747 748 749 750 751 751 752 756 761 762 765 768 771 774 777 780 784 792 797 798 799 801 801 801 801 801 801 802 803 803 804 806 807 808 809 810 811 812 813 814 816 817 818 819 820 822
713 707 707 714 717 717 721 721 715 717 731 732 716 708 712 712 713 713 707 708 721 726 707 701 731 740 725 733 742 736 740 744 743 746 745 743 740 738 740 742 745 747 748 749 751 751 753 757 761 763 764 768 772 774 778 782 787 793 796 797 799 801 801 802 802 802 803 802 803 804 804 805 806 807 809 810 811 811 812 814 815 816 818 819 821 822
705 704 707 710 713 716 718 718 711 709 724 727 709 705 710 710 712 714 711 713 712 712 708 700 711 731 731 732 735 733 741 747 746 748 746 742 740 737 738 739 741 744 745 748 751 753 755 758 761 763 765 769 774 777 781 786 791 795 797 797 799 801 801 802 803 803 804 803 804 804 805 806 807 807 809 810 811 811 812 813 814 816 817 818 818 818
700 703 705 705 712 714 712 711 705 705 715 715 704 704 706 706 708 708 711 716 707 707 722 712 705 728 734 729 734 733 739 749 746 745 745 741 740 739 738 739 739 741 743 745 749 753 756 760 762 764 766 771 776 780 786 789 792 795 798 799 799 801 802 802 803 804 804 805 804 805 805 806 807 808 809 811 811 812 813 813 815 815 816 816 818 819
698 696 694 699 707 708 704 703 700 702 708 704 701 702 702 702 703 704 710 716 712 715 729 718 708 729 736 730 740 742 740 746 742 739 740 737 739 739 739 740 740 741 743 745 748 752 756 759 763 765 767 772 777 780 786 790 792 795 798 800 801 802 803 804 804 804 805 805 805 805 806 806 807 809 810 811 812 813 813 814 815 816 817 819 821 822
690 687 687 690 695 697 696 697 696 697 699 698 702 706 705 704 701 705 707 710 723 730 724 712 704 720 735 729 733 737 731 731 732 735 737 735 737 738 738 739 740 741 743 745 748 751 755 759 763 765 769 775 778 779 783 786 790 794 796 799 802 804 806 806 806 805 805 806 806 806 807 807 808 810 811 812 813 814 814 815 816 817 819 821 823 824
687 688 687 682 683 688 692 695 694 692 693 697 704 709 714 714 710 715 714 714 735 740 719 703 696 712 733 724 715 717 714 715 721 726 730 733 734 735 736 737 738 741 743 745 748 752 755 759 763 767 771 775 777 778 780 782 784 789 795 799 802 805 806 807 807 807 807 808 808 808 808 808 809 811 812 813 813 814 815 816 817 818 820 822 823 824
691 686 683 680 678 681 690 697 697 694 694 698 703 712 724 729 729 734 732 729 739 733 709 697 698 712 723 708 697 703 706 709 711 711 717 724 728 731 732 735 737 740 743 745 748 752 755 759 763 767 771 774 775 775 778 781 783 787 794 798 800 802 805 806 807 808 809 809 809 809 809 809 810 812 813 813 814 815 815 815 816 817 819 821 822 823
700 688 679 681 680 676 683 695 703 701 699 701 703 712 726 733 741 748 743 738 737 725 702 692 700 715 716 698 688 694 698 699 701 702 707 713 718 724 728 732 737 739 742 744 747 751 754 758 762 766 770 772 773 774 777 782 783 784 790 796 798 801 803 805 807 808 809 810 810 809 809 810 811 812 813 813 813 814 815 815 815 816 818 820 822 823
707 700 683 680 679 675 678 685 692 694 697 697 693 702 716 719 730 742 739 737 735 723 705 698 707 716 712 697 683 685 690 692 697 702 706 711 715 721 727 732 736 739 742 744 747 750 753 758 762 766 770 772 774 776 778 781 782 781 786 793 797 801 803 805 807 808 809 809 810 810 810 811 812 812 813 813 813 814 814 814 814 816 818 820 822 823
701 698 677 671 672 671 678 678 676 686 698 695 687 699 711 704 707 720 724 722 724 724 715 708 708 703 696 688 678 682 691 692 698 705 711 717 720 723 729 733 736 739 741 742 745 750 756 761 764 767 771 774 776 777 778 781 784 782 786 793 797 801 804 806 807 808 808 809 809 810 811 812 812 813 813 813 813 813 813 814 815 817 819 820 822 823
698 693 671 669 672 668 674 675 670 682 697 695 695 703 700 689 693 709 719 716 720 732 725 710 709 702 697 694 683 685 696 697 701 707 712 717 720 724 730 732 735 737 738 741 746 753 758 761 764 767 771 773 774 776 779 783 786 784 787 793 798 802 805 807 808 808 809 809 810 811 812 812 813 813 814 814 813 813 813 814 815 817 818 820 821 823
688 691 672 669 678 670 666 672 671 673 682 693 701 698 689 689 693 701 718 726 730 741 730 712 715 716 714 710 695 691 700 704 706 708 713 718 720 725 728 730 733 734 738 744 750 755 758 760 763 766 769 772 774 777 780 783 784 785 789 794 799 802 805 807 808 809 809 810 811 812 812 813 813 814 815 814 813 813 813 814 815 816 818 820 821 823
674 689 678 666 675 673 664 674 683 675 674 684 690 685 690 707 711 705 717 731 738 746 737 719 717 717 714 709 701 700 704 706 709 711 715 719 721 724 727 729 732 736 742 748 752 756 758 760 763 765 769 772 775 779 782 781 782 785 791 796 799 802 805 807 808 809 810 811 812 813 813 813 813 814 815 814 814 813 813 814 815 817 819 821 823 825
667 686 687 670 667 670 669 679 692 688 680 681 683 682 687 699 706 705 709 719 731 743 742 731 724 716 707 698 694 699 702 703 710 714 715 718 720 722 725 729 734 739 745 749 752 756 758 761 764 766 770 772 774 780 782 780 781 787 792 797 800 802 804 807 809 810 812 813 813 814 814 813 814 814 815 814 814 813 814 814 816 818 821 823 825 826
666 679 688 677 668 675 681 681 687 692 690 691 692 692 692 692 694 699 702 705 715 732 739 738 735 718 700 693 689 689 695 700 705 711 713 715 718 720 722 726 733 740 745 748 751 755 758 761 764 766 770 772 775 780 780 778 781 788 794 797 800 802 804 807 809 811 813 814 814 814 814 814 814 814 814 814 814 814 814 816 817 820 822 824 826 828
669 676 686 686 682 687 686 676 676 683 685 688 691 691 692 692 695 708 716 705 702 716 724 730 735 719 699 695 690 683 688 694 698 705 712 714 717 719 721 725 732 739 744 747 750 754 757 760 764 767 770 773 776 778 779 779 782 789 795 798 800 802 805 808 810 812 813 814 814 814 814 815 815 815 815 815 815 815 816 817 819 821 823 825 827 828
665 674 685 690 688 686 680 672 674 677 677 680 682 682 685 687 694 712 723 712 703 707 709 716 728 718 697 692 689 683 684 689 695 701 708 714 716 718 722 728 734 739 743 747 751 754 758 761 764 767 770 774 777 778 778 779 783 789 795 798 801 803 806 809 811 812 813 814 814 815 815 815 815 815 815 815 816 817 818 819 821 822 824 826 828 829
665 677 690 694 690 683 678 673 672 674 678 683 681 678 682 684 688 698 704 703 706 708 708 719 731 721 700 692 689 685 682 687 694 698 705 715 717 719 725 731 736 740 744 749 752 755 759 762 765 768 770 774 777 779 780 781 784 789 795 799 801 804 807 809 811 813 814 814 815 816 816 817 817 817 817 817 818 819 820 821 823 824 826 827 828 830
671 682 689 699 702 698 695 691 686 682 683 686 681 677 681 681 684 693 695 698 707 708 705 719 732 722 704 697 694 691 688 691 696 698 704 714 719 723 729 733 736 740 745 749 753 756 759 763 766 769 771 774 777 779 781 784 787 791 796 799 801 804 807 810 812 813 814 815 816 817 818 819 820 819 819 820 820 821 822 823 825 826 827 828 829 830
673 681 684 697 709 711 709 704 695 689 687 686 681 677 680 681 684 693 701 709 715 707 700 713 726 720 709 704 703 700 699 700 701 702 706 711 716 722 728 733 736 740 745 749 752 755 760 763 766 769 772 774 777 780 782 785 789 792 796 799 802 804 807 810 812 813 814 816 817 819 820 821 822 822 823 823 823 823 824 825 826 827 828 830 830 831
672 679 678 687 697 699 698 690 681 681 687 691 688 681 680 682 684 691 702 712 711 704 703 709 714 719 719 716 712 708 707 708 708 708 710 713 717 722 727 733 736 740 745 748 751 755 760 764 767 769 772 775 778 781 784 787 790 792 795 798 801 804 807 809 812 813 815 817 819 821 822 823 825 825 825 825 825 825 826 827 828 829 830 831 831 831
674 682 679 681 685 682 680 678 674 678 685 689 691 687 681 680 684 694 703 704 699 703 713 710 706 716 725 723 719 713 710 711 712 713 714 717 721 725 729 734 738 742 746 748 751 755 760 765 768 771 774 776 779 782 785 788 790 792 795 797 800 803 807 810 812 814 816 819 820 822 824 825 826 827 827 828 827 826 827 828 829 830 830 831 832 832
674 684 680 681 684 678 673 674 675 679 683 685 688 689 683 681 686 695 699 695 693 702 713 710 705 712 720 721 720 715 712 713 715 716 717 720 723 727 731 736 741 744 746 750 753 756 761 766 769 772 775 777 779 783 785 788 790 791 794 797 800 804 807 810 812 815 817 819 821 823 824 825 827 828 829 829 829 828 828 829 830 831 831 832 833 834
672 682 679 680 686 682 676 675 674 679 684 685 686 687 684 682 684 690 693 690 691 699 701 701 704 707 710 713 715 715 714 715 718 720 722 725 728 731 734 739 743 746 748 751 755 758 762 766 769 771 774 777 780 782 785 788 790 792 795 798 801 805 808 811 813 816 818 820 822 823 825 826 827 829 830 830 830 830 830 830 831 832 833 834 835 835
674 684 679 679 689 688 679 676 675 678 684 686 686 685 683 684 685 687 691 689 692 700 697 694 703 711 709 707 711 714 716 718 722 726 728 730 732 734 738 741 744 747 750 753 756 760 763 766 769 772 774 777 780 782 785 789 792 794 796 799 803 806 809 812 813 816 819 821 823 824 826 827 828 830 830 831 831 831 831 831 832 833 834 835 836 837
676 686 682 683 696 694 681 679 679 678 682 686 688 684 683 687 689 687 688 687 689 696 698 698 708 716 713 710 713 716 717 720 725 728 730 733 733 735 739 742 745 748 751 754 757 761 764 767 770 773 775 777 780 782 786 789 793 795 798 801 805 808 811 812 814 817 819 821 824 825 826 828 829 830 831 831 832 832 832 833 834 835 836 837 838 838
678 687 688 692 701 696 684 681 682 684 692 697 694 689 685 686 686 683 682 683 683 687 693 700 707 710 708 708 715 720 720 722 725 727 730 733 734 736 738 741 746 749 750 753 757 760 764 766 769 772 775 777 780 783 787 789 793 796 798 801 805 808 811 813 815 817 819 821 824 825 826 828 829 830 831 832 833 833 833 835 836 837 838 838 839 839
680 686 690 693 699 697 687 680 685 699 710 706 696 690 688 685 684 683 682 680 680 682 687 694 700 703 704 705 711 717 720 721 722 724 727 729 732 737 739 742 745 747 750 753 756 759 762 765 769 772 775 778 782 785 788 791 793 796 799 802 805 808 811 813 815 817 819 821 823 825 826 828 829 831 832 832 833 834 834 836 836 837 838 839 839 839
684 688 692 693 695 694 687 687 703 718 714 700 690 685 683 681 679 680 681 678 677 681 687 694 699 701 703 704 706 711 715 717 720 724 726 727 729 733 739 743 744 746 750 753 755 758 761 764 768 772 775 779 782 785 789 791 793 797 800 802 805 808 810 813 815 817 819 821 822 824 826 828 830 831 832 833 834 834 835 836 837 838 838 839 840 840
684 690 693 693 694 696 695 701 716 718 703 690 687 682 678 679 681 684 687 683 678 680 687 695 699 699 701 703 705 708 712 715 720 724 725 727 728 732 738 743 745 747 750 752 754 758 761 763 766 771 775 779 782 785 788 791 793 796 800 802 805 807 810 812 814 816 819 820 822 824 826 828 830 831 832 833 834 834 835 836 837 838 838 839 840 841
680 689 694 696 695 697 702 707 708 707 701 693 690 686 684 686 687 691 696 691 680 679 684 691 697 700 702 705 707 708 711 717 725 729 728 727 730 733 737 742 745 747 750 753 755 758 762 765 767 770 775 778 781 784 787 790 792 795 799 802 804 807 809 811 813 816 818 820 821 823 826 828 830 831 832 833 833 834 835 836 837 838 838 839 840 841
678 686 693 700 700 696 702 709 711 715 714 701 691 685 683 684 684 685 695 695 683 679 683 687 694 699 701 707 710 710 713 722 731 734 731 730 732 735 738 742 745 747 750 754 757 759 763 766 768 771 775 778 782 785 787 790 791 793 797 801 803 806 808 810 813 815 818 819 821 823 826 828 829 831 832 833 833 834 835 836 837 838 839 840 841 842
680 685 689 699 704 701 704 712 715 717 713 700 691 684 680 681 680 683 698 702 687 681 684 686 691 696 699 705 708 709 716 727 734 733 731 731 732 735 739 743 746 748 751 754 757 760 763 766 769 772 775 778 782 785 788 790 791 793 796 800 802 805 808 810 813 815 817 819 821 824 826 828 830 831 832 833 834 835 836 837 838 839 840 842 842 843
687 690 693 700 706 706 707 709 711 711 706 696 691 687 682 679 680 693 714 710 691 684 687 686 689 693 696 701 705 708 714 720 724 727 728 730 732 735 738 743 746 749 752 755 758 760 764 767 770 773 776 779 782 785 788 790 791 793 796 799 802 805 807 810 813 815 817 819 821 824 826 828 830 831 832 833 834 835 837 837 838 840 841 842 843 844
693 694 697 702 706 707 708 709 711 710 702 692 689 687 682 682 691 708 718 706 690 687 686 684 687 689 691 697 701 704 706 706 709 719 726 729 733 737 739 743 748 751 754 757 760 762 765 768 770 773 777 780 782 785 788 789 791 794 797 799 802 805 808 810 812 815 817 819 821 824 826 828 830 831 832 834 835 836 837 838 839 840 841 842 844 844
699 699 701 704 706 707 705 706 713 712 698 688 689 686 684 693 708 712 705 694 690 689 684 683 687 688 688 692 695 698 702 704 710 719 725 728 733 737 741 744 748 752 755 758 761 764 766 770 773 775 778 781 783 786 787 789 791 794 797 800 803 806 808 810 812 815 817 819 822 824 826 828 830 832 833 834 835 836 837 838 839 841 842 843 844 844
698 701 705 704 703 705 706 708 715 714 697 685 689 692 692 701 707 703 695 691 689 688 685 685 685 686 689 693 695 698 703 709 715 720 725 729 733 737 742 745 748 753 756 759 762 764 767 770 774 777 779 782 784 786 787 789 792 794 797 801 804 806 808 810 812 815 818 820 823 825 827 829 831 832 834 835 836 836 837 838 840 841 842 843 844 845
693 699 706 703 698 703 711 712 710 706 694 686 691 697 698 697 695 693 693 692 688 686 687 687 686 687 689 693 698 702 707 713 718 722 726 731 734 738 743 746 749 753 757 759 763 765 767 771 774 777 780 782 784 786 787 789 792 795 798 802 805 807 809 811 813 816 819 821 823 826 828 829 831 833 834 835 836 836 837 838 840 841 842 843 844 845
700 698 701 702 700 702 709 709 703 698 695 691 692 695 695 693 691 690 691 691 688 687 688 688 689 691 692 695 700 705 709 714 718 721 726 731 735 738 743 747 750 754 757 761 763 765 768 771 774 777 780 782 784 787 788 790 793 796 799 803 805 807 809 812 814 817 819 822 824 827 829 830 832 834 834 835 836 837 837 839 839 841 842 843 844 845
706 699 697 700 701 701 703 703 700 699 700 698 696 695 694 693 693 691 690 691 690 689 690 692 692 692 694 697 701 707 711 714 718 723 727 731 735 739 743 747 751 755 758 761 763 766 769 771 774 777 780 783 786 788 790 791 793 796 800 804 806 808 810 813 815 818 820 823 825 827 829 830 832 834 834 836 836 837 838 838 839 840 842 843 843 844
705 702 701 701 702 705 708 708 704 703 703 702 701 699 696 694 693 693 692 693 691 691 694 696 695 695 697 699 702 708 713 715 719 725 728 731 736 740 743 747 751 754 757 760 762 766 769 772 775 778 780 784 786 788 791 793 795 797 801 804 807 809 811 814 816 818 821 823 825 827 829 830 831 832 833 834 835 836 837 838 839 840 841 842 843 844
708 707 707 707 707 711 713 711 707 706 705 703 702 701 698 697 695 694 694 694 693 693 695 698 699 699 699 701 704 709 714 717 720 724 729 732 736 740 743 747 750 754 757 759 762 766 769 771 775 778 781 784 787 789 791 794 796 798 802 805 808 810 812 814 816 818 821 823 825 827 828 829 830 831 832 833 834 836 837 838 840 841 842 843 844 844
715 713 711 710 712 713 713 710 708 707 707 706 703 700 698 697 697 696 696 696 695 696 697 699 700 701 701 704 706 709 715 720 722 724 729 733 736 739 743 746 750 753 756 759 762 765 768 771 774 776 780 784 786 789 792 795 797 800 802 805 808 810 812 814 816 818 821 823 824 826 827 828 830 830 832 833 834 836 838 839 840 841 843 844 845 846
717 717 714 712 714 716 714 711 709 709 710 709 704 700 699 698 698 698 698 697 697 698 699 700 702 703 703 705 706 708 714 720 723 726 729 732 735 739 742 746 749 753 755 758 762 765 768 771 773 776 780 784 786 790 793 795 798 801 803 806 808 810 812 814 816 818 820 822 824 825 827 828 829 831 832 834 835 836 838 840 842 843 844 845 847 848
716 715 714 714 716 714 711 709 707 708 710 708 704 701 700 700 700 700 700 700 699 699 699 700 703 705 707 708 708 709 713 719 723 726 729 733 736 738 741 745 748 752 755 758 761 765 768 771 774 777 780 784 787 790 793 795 798 801 803 806 808 810 812 813 815 817 820 822 824 825 826 828 829 831 832 834 836 837 839 841 843 844 845 847 848 849
Wind_Speed
7 6 8 8 8 9 12 11 9 9 11 11 8 8 10 8 7 8 10 13 13 11 14 15 11 12 14 13 14 5 12 13 11 11 10 11 11 11 12 11 12 11 9 13 17 16 20 20 18 19 18 18 20 18 15 11 14 22 25 27 26 25 26 25 24 27 25 23 22 21 20 18 17 16 16 16 15 14 13 13 11 11 10 10 9 5
8 9 10 9 9 10 12 12 10 11 15 13 8 8 10 9 9 11 11 13 13 9 11 16 14 13 12 12 13 8 14 12 12 12 11 11 10 9 13 13 11 9 7 10 12 12 16 18 20 22 20 22 23 23 21 14 15 23 26 28 27 25 27 26 26 28 25 22 22 22 20 18 17 16 16 16 16 14 12 12 11 11 11 11 12 9
10 10 10 11 10 9 11 13 13 13 14 12 8 6 6 8 9 11 14 15 11 7 8 16 14 11 12 10 7 11 13 12 14 16 16 15 12 11 13 13 11 10 9 10 10 12 16 18 24 28 25 24 25 27 26 19 19 24 27 27 26 26 29 27 27 27 23 21 20 20 19 19 17 16 16 16 15 14 13 12 12 11 11 12 13 11
8 8 11 13 11 12 12 14 16 13 10 10 8 6 5 6 7 8 13 15 11 8 9 14 12 9 11 4 4 8 11 11 10 11 14 15 16 15 13 13 14 14 12 11 11 11 15 19 23 26 25 25 25 26 26 25 25 26 26 25 26 28 28 27 26 24 23 21 19 18 19 18 17 16 16 15 14 14 13 13 12 10 11 13 12 11
8 8 12 14 14 16 14 12 14 10 7 10 10 8 6 9 9 7 9 10 9 9 10 13 9 7 8 4 7 4 7 10 8 7 8 9 12 13 12 11 13 15 14 13 13 12 13 16 19 23 26 28 28 28 29 31 32 29 25 24 27 27 24 24 25 23 22 21 20 19 18 17 16 15 14 15 14 13 12 12 11 10 10 10 10 10
8 10 14 17 16 16 15 12 13 11 7 9 12 11 10 12 12 9 9 7 4 5 7 10 7 6 5 8 8 5 7 9 7 8 9 8 10 12 11 11 11 12 13 13 13 12 12 12 15 20 25 27 28 29 31 34 33 28 24 25 27 24 21 21 22 22 21 21 22 23 21 19 17 15 15 16 16 14 13 12 10 10 9 9 9 10
7 12 15 17 15 16 15 11 13 14 8 7 10 11 12 15 15 13 11 7 4 4 7 7 7 4 3 7 9 9 11 10 9 8 9 9 11 11 11 12 12 11 10 10 8 8 10 12 12 16 21 24 25 27 31 29 25 24 23 25 26 23 19 19 20 20 20 21 22 23 23 20 18 17 16 15 15 14 13 13 11 11 12 14 13 12
9 13 16 17 15 14 14 11 12 14 10 6 8 10 12 15 17 16 11 7 4 6 8 8 7 3 3 4 9 13 13 11 10 9 8 8 8 10 12 12 13 13 11 10 8 7 8 10 11 13 16 19 19 21 23 17 16 19 20 22 24 22 19 19 20 20 20 20 21 22 20 18 17 18 17 15 15 14 14 13 13 14 15 16 15 12
10 13 15 18 15 11 11 11 12 13 10 7 8 11 12 13 16 15 9 6 4 6 6 8 7 5 3 2 7 11 12 10 10 11 10 10 9 9 10 11 12 12 11 11 9 7 7 8 10 12 15 15 14 15 15 13 14 17 17 18 21 21 19 19 20 19 19 20 20 21 20 18 17 17 17 16 16 17 16 16 16 17 16 15 12 8
10 12 13 16 13 10 11 12 13 13 10 7 9 11 12 12 12 11 8 4 3 4 7 8 7 5 2 3 7 7 9 10 10 10 11 11 11 10 9 10 11 11 10 10 9 8 9 11 12 16 17 17 17 19 20 17 17 18 16 17 18 19 18 18 19 20 20 21 20 21 21 19 18 17 18 19 19 20 20 20 20 17 15 12 10 8
11 11 11 12 12 10 10 12 15 14 9 9 11 10 10 11 7 6 5 1 1 4 6 10 11 8 2 3 8 8 9 13 12 10 10 11 11 11 11 11 11 10 9 10 10 8 10 15 18 20 18 15 18 22 24 22 20 19 18 19 17 16 15 15 17 20 20 20 19 20 19 19 19 19 20 21 21 20 21 21 19 16 15 13 11 10
13 12 10 8 12 12 10 11 14 14 10 9 9 7 7 6 3 3 3 2 2 5 5 9 11 10 5 5 8 12 13 16 16 14 15 15 14 13 12 11 10 9 9 10 11 8 10 14 16 19 19 17 18 22 25 24 25 22 20 20 17 15 15 14 15 18 18 17 16 17 17 18 19 19 19 19 20 21 22 21 19 18 17 15 13 11
9 11 10 8 12 14 11 9 10 12 10 9 8 6 5 4 3 5 4 1 4 4 6 10 10 7 6 6 7 13 16 17 17 17 19 19 17 15 13 12 10 8 9 10 10 9 9 10 12 17 20 19 19 23 24 23 26 25 21 21 19 18 17 14 15 16 16 15 16 17 18 18 18 18 19 21 23 23 23 22 21 20 19 16 14 12
5 8 13 11 10 13 12 8 8 9 9 10 9 6 5 4 5 5 3 1 2 4 7 8 8 4 3 5 7 13 19 20 18 17 20 21 20 18 14 12 10 9 10 9 9 10 9 9 13 17 20 20 19 21 22 22 27 28 25 22 20 19 17 16 16 17 17 17 17 17 18 18 18 20 21 23 24 23 21 21 21 20 19 17 15 12
6 6 12 11 7 13 13 8 8 7 6 9 9 5 4 3 5 5 2 2 3 4 4 3 5 3 3 6 8 13 18 17 14 12 14 17 16 15 13 12 11 9 9 9 10 11 10 12 16 18 19 19 18 21 23 25 28 29 26 23 21 20 18 18 19 20 20 20 20 20 21 21 21 22 22 21 21 20 20 19 19 19 16 15 14 11
6 5 11 11 7 14 14 8 9 8 4 7 7 5 6 4 4 4 3 4 3 1 2 2 2 2 3 5 4 9 15 14 14 12 12 13 12 13 12 11 12 10 9 10 11 10 11 14 18 20 18 17 19 23 25 25 25 26 27 24 22 21 20 20 21 22 23 23 23 23 22 22 21 21 21 20 19 18 18 17 17 17 15 13 12 11
5 3 11 13 8 15 17 9 10 11 5 5 6 6 6 4 3 5 2 1 4 2 3 2 1 3 1 5 6 10 16 12 14 16 15 15 15 14 13 12 12 11 11 11 9 10 12 14 17 20 21 21 22 23 23 23 23 26 28 26 23 23 22 22 23 24 24 23 23 21 20 20 19 19 19 18 18 17 16 16 15 15 13 12 11 12
4 3 12 17 11 14 15 6 5 7 5 5 6 5 3 5 3 4 3 0 3 2 3 2 3 1 3 3 3 12 18 12 14 16 15 15 16 14 13 13 13 13 11 9 10 11 13 15 17 20 23 23 22 22 24 25 26 28 28 26 25 24 23 23 23 23 23 22 22 21 19 18 18 17 17 17 17 17 16 15 13 11 11 11 11 12
4 2 7 14 10 8 8 5 1 5 4 4 5 4 3 3 4 1 3 4 4 3 2 3 6 4 4 4 2 11 16 14 14 16 16 15 14 13 13 13 13 12 10 9 11 12 12 14 17 20 21 22 22 23 24 27 29 29 27 26 26 25 23 23 22 21 21 21 20 19 18 18 18 18 18 18 17 16 16 15 14 13 13 12 12 12
5 3 3 7 9 5 3 4 3 5 4 4 4 6 5 4 3 2 3 4 5 4 2 3 5 4 3 5 7 10 13 15 15 14 16 16 14 13 12 12 12 11 10 10 12 12 12 14 17 20 22 23 24 24 24 29 32 29 27 27 26 24 23 22 21 20 19 19 18 18 17 18 19 19 19 18 17 16 16 15 15 16 15 13 12 11
3 4 3 4 7 6 2 3 5 5 3 4 5 7 7 4 3 3 1 2 4 5 4 3 3 5 4 2 6 11 13 15 17 15 15 15 15 15 13 13 12 11 11 12 12 12 12 14 18 21 23 25 25 25 26 30 32 29 27 27 26 25 23 22 20 19 18 17 17 18 19 20 20 20 20 20 20 20 19 18 17 16 15 14 12 11
2 4 4 4 5 5 5 4 6 8 7 5 5 5 5 5 4 3 1 3 3 4 4 5 3 6 4 4 3 9 13 14 17 17 14 14 16 15 13 13 13 12 13 13 13 13 12 14 19 20 22 24 24 25 28 31 31 29 27 26 26 25 24 22 21 18 17 18 19 20 21 21 21 21 20 21 21 21 20 18 16 14 14 13 13 13
2 4 4 3 2 3 5 6 9 13 10 6 6 4 4 6 5 5 3 4 3 3 4 5 3 7 5 5 5 6 11 13 17 18 15 14 15 15 12 12 12 13 13 14 14 14 12 16 19 19 21 23 21 24 28 30 30 29 27 26 26 25 24 22 20 18 18 20 21 21 21 21 20 20 19 19 18 18 18 16 15 14 14 15 15 14
3 4 4 3 2 3 6 7 11 14 10 6 8 6 3 4 5 4 4 3 3 3 4 4 3 5 6 6 4 4 8 9 13 17 16 13 11 12 11 11 12 13 13 14 13 12 13 17 18 17 19 21 19 22 27 28 29 29 27 27 27 26 24 22 20 19 20 20 20 19 20 20 19 19 19 19 17 16 16 16 16 16 17 17 16 15
2 3 5 5 4 6 8 8 10 13 9 4 5 7 5 5 8 5 3 2 3 4 6 6 3 5 5 5 7 9 10 10 9 14 17 13 11 10 10 10 12 14 14 14 14 13 14 15 15 15 18 20 19 22 25 27 28 28 27 27 27 26 24 21 20 20 19 19 18 18 18 17 17 18 18 18 17 16 17 17 16 16 17 17 17 18
3 3 5 6 6 7 7 6 5 6 5 1 2 6 8 7 11 10 4 1 4 5 5 6 2 2 3 5 9 11 12 11 9 12 15 14 13 12 11 10 12 13 15 16 15 15 14 13 13 17 20 21 20 23 25 26 27 28 28 28 28 27 25 22 21 21 20 18 17 17 16 14 15 15 16 16 17 17 18 17 17 17 18 17 18 18
3 2 3 5 5 5 3 2 3 4 4 3 4 5 9 8 8 8 5 4 4 3 2 4 7 6 4 5 7 10 11 11 10 11 12 12 11 12 12 11 11 12 14 15 15 14 14 13 13 17 21 22 22 24 25 25 26 28 29 29 29 28 26 23 22 21 20 19 18 17 15 15 15 15 16 18 17 17 17 17 16 15 14 16 18 18
4 2 4 4 3 5 4 3 6 7 6 6 5 7 8 8 6 6 6 7 5 3 3 3 10 12 5 2 5 9 11 10 9 10 10 10 10 10 11 12 13 13 14 14 15 15 15 14 13 15 20 24 24 24 24 25 26 28 29 29 29 28 26 24 23 22 21 20 19 18 17 17 17 16 16 17 17 18 19 17 15 15 17 20 21 20
5 2 6 6 4 5 6 6 8 8 6 6 8 9 9 9 8 7 6 5 4 6 5 5 11 12 9 8 6 6 10 11 10 9 9 9 11 11 13 13 13 14 15 15 15 16 16 15 13 15 19 23 24 24 24 25 27 28 29 29 29 27 25 24 24 23 22 21 20 19 18 17 17 17 17 17 18 20 19 17 16 19 22 23 22 21
4 1 4 5 4 6 6 9 11 12 10 9 9 10 10 10 10 7 5 4 4 8 9 9 11 8 8 11 10 8 9 11 10 9 9 10 11 12 13 13 13 13 14 14 15 15 16 15 15 17 20 22 23 24 24 24 25 27 28 29 29 27 26 26 26 25 23 21 20 19 18 17 18 18 18 18 19 19 18 18 19 20 21 22 21 19
4 1 1 3 2 6 6 6 7 12 14 12 10 10 8 6 7 8 7 4 3 5 8 10 10 4 2 8 12 11 11 11 11 11 11 10 11 12 12 12 12 12 12 14 15 14 15 15 15 17 20 21 22 24 24 24 25 27 28 29 28 27 27 27 26 24 22 21 20 19 19 19 19 19 18 18 18 19 20 20 19 19 20 21 19 18
4 1 3 4 2 4 5 3 3 2 11 12 9 10 8 4 4 6 6 6 5 5 6 8 8 3 3 9 12 10 12 13 13 13 12 10 11 14 13 12 12 12 13 15 15 15 15 15 14 16 19 22 24 24 25 25 25 26 28 29 28 27 26 25 24 24 22 21 19 19 20 20 20 20 20 20 20 21 21 20 18 18 19 20 19 20
4 3 2 3 2 4 5 1 6 4 6 8 6 7 7 6 6 4 2 4 5 5 5 6 6 7 10 12 12 10 11 12 12 12 11 11 11 12 13 13 12 12 14 15 16 16 15 15 16 19 22 24 25 25 26 27 27 27 28 30 29 28 26 25 25 24 23 22 21 21 21 21 21 21 21 21 22 21 21 20 20 19 18 19 20 21
4 5 1 1 2 4 4 4 6 4 2 5 6 3 1 2 4 5 4 4 5 3 5 6 7 9 11 12 14 12 10 10 11 10 11 11 11 10 10 11 13 14 14 14 15 16 14 15 20 23 25 26 27 27 28 28 28 29 30 30 29 29 29 27 26 26 25 24 23 22 22 21 21 21 21 21 22 21 20 22 22 21 20 20 20 21
4 5 1 1 1 2 3 7 5 1 3 5 7 4 1 4 5 1 3 5 6 6 9 11 10 10 9 10 12 12 10 10 11 11 11 12 11 11 11 10 12 14 14 14 15 14 14 19 23 24 26 28 29 29 28 28 29 30 28 28 30 30 30 29 27 26 25 24 23 22 21 21 22 23 22 22 21 20 21 22 23 21 20 22 23 22
5 4 1 1 0 1 2 4 3 4 5 5 5 5 3 5 7 7 5 5 6 7 11 12 9 8 10 11 11 11 11 10 10 9 11 11 11 12 12 10 11 12 13 13 14 14 16 22 26 26 27 28 29 30 30 30 32 29 25 27 31 30 29 29 27 26 26 25 23 22 23 23 23 23 22 21 21 21 22 24 24 23 23 24 25 24
5 4 2 1 1 2 2 2 2 1 5 6 4 3 2 3 4 4 1 6 7 5 11 12 10 10 12 12 11 12 12 10 7 5 7 11 12 12 13 12 12 13 13 15 18 20 22 25 27 29 29 29 30 33 32 33 33 29 26 28 28 27 28 29 27 26 26 25 23 24 24 23 23 23 22 21 23 24 25 24 23 22 22 23 22 22
4 3 4 2 1 1 4 2 2 2 2 5 6 5 1 4 2 4 4 4 8 2 7 14 15 14 14 13 11 11 11 9 6 3 6 11 12 12 13 13 14 17 17 18 20 23 25 26 27 29 31 31 31 32 32 31 31 29 27 25 23 25 28 29 27 26 25 24 24 25 24 23 23 22 22 22 24 25 24 22 20 20 20 20 21 21
5 4 5 4 1 2 4 3 1 1 3 6 6 6 3 3 4 5 4 4 7 6 2 12 16 14 15 15 13 11 9 6 5 4 7 11 12 12 14 12 14 18 21 23 24 24 25 26 27 29 30 30 29 29 30 30 30 29 27 23 23 25 26 26 27 26 24 24 26 25 23 23 22 22 23 24 24 24 23 23 22 22 22 22 24 24
4 2 4 4 1 1 2 1 1 1 4 5 3 5 5 5 7 6 2 6 6 8 5 9 16 14 15 15 12 11 9 7 7 8 10 13 12 13 15 14 14 17 20 23 26 27 28 28 28 28 28 27 28 29 30 30 30 29 27 25 24 23 22 25 28 27 25 26 27 25 24 24 22 22 25 25 24 23 24 23 23 23 22 21 21 22
2 2 3 4 0 2 1 1 0 2 4 3 2 4 5 7 8 5 5 7 5 7 5 8 15 14 15 15 11 8 6 5 9 12 13 14 12 12 15 18 19 20 22 24 26 27 27 27 27 27 27 26 28 30 30 30 29 27 27 26 24 21 22 27 29 28 27 27 26 24 24 24 23 24 25 24 23 22 22 23 24 23 22 20 18 17
1 1 2 3 1 2 1 2 1 2 4 2 1 4 6 6 2 3 5 6 5 5 4 7 12 11 13 14 9 6 7 10 15 17 15 14 15 13 14 17 19 20 23 26 28 28 26 23 24 25 25 26 28 29 30 30 28 27 28 27 25 24 28 30 30 29 28 27 25 24 25 25 25 24 23 22 22 22 23 24 24 22 20 19 17 16
1 1 1 1 2 1 0 2 2 2 5 2 3 4 4 3 5 6 3 4 3 5 4 6 11 11 11 9 7 9 12 15 17 17 14 14 15 14 14 17 18 18 22 26 27 28 27 25 24 24 24 25 26 28 30 30 29 29 29 28 27 29 31 31 30 29 28 27 26 25 26 26 24 22 21 21 22 23 24 23 22 19 17 17 16 16
0 2 2 1 1 1 1 1 2 3 4 2 5 2 1 2 3 3 1 3 4 6 4 3 6 7 8 9 10 12 15 15 15 16 15 14 15 14 15 17 18 20 23 25 26 27 28 26 25 24 23 24 26 29 31 32 31 30 29 28 28 31 31 30 30 29 28 27 27 26 26 25 23 21 21 21 21 22 22 22 21 19 18 17 17 17
3 1 4 2 1 2 3 3 3 1 4 5 5 3 2 2 4 3 4 4 4 5 4 3 7 8 9 12 13 13 14 15 15 15 15 14 15 15 15 17 20 23 24 24 25 27 28 26 25 24 24 26 29 31 32 34 33 31 29 28 29 30 30 29 29 28 28 28 26 25 24 23 22 21 21 21 21 22 22 22 21 20 18 17 17 17
4 4 1 2 1 2 1 2 3 5 7 7 6 4 3 5 5 5 6 5 4 5 6 4 7 11 12 13 13 12 12 14 15 14 14 14 14 14 15 17 21 25 25 23 25 27 27 26 25 25 25 27 29 30 31 34 34 32 30 29 30 29 29 30 29 28 28 27 25 24 24 23 22 21 20 20 20 20 20 19 18 17 16 15 15 16
4 5 4 2 2 2 2 4 4 5 3 5 6 6 5 5 5 5 5 5 4 5 6 5 6 9 11 12 13 13 12 15 16 14 13 14 14 14 14 16 20 23 24 24 26 28 26 24 23 24 26 26 27 29 30 31 32 33 31 30 29 30 30 30 30 29 28 26 24 24 24 23 21 20 19 19 18 18 18 17 17 16 14 14 15 17
3 5 4 2 3 2 1 2 2 4 2 2 3 3 4 5 6 6 5 5 5 6 7 7 6 7 8 10 13 14 13 13 15 15 13 12 13 13 14 17 20 23 24 27 29 28 26 23 24 25 25 25 27 30 29 29 31 33 32 30 30 31 31 30 29 29 27 26 25 24 23 22 21 21 22 21 20 20 19 17 16 16 16 16 16 18
3 3 4 2 3 2 2 1 3 4 4 5 3 2 4 5 5 6 6 5 6 7 7 7 7 7 10 11 13 15 15 13 13 15 14 12 13 14 15 19 22 24 26 28 29 28 26 25 26 26 26 26 29 30 29 29 31 32 31 30 31 31 30 30 29 28 27 27 25 23 23 22 22 23 24 24 23 22 20 19 17 16 16 16 14 14
1 2 3 3 3 1 1 1 2 2 0 3 4 3 5 6 5 6 6 6 5 6 6 8 7 8 10 12 13 15 16 13 12 14 14 12 13 16 19 21 22 24 26 28 28 27 27 27 27 27 27 27 29 30 29 30 30 29 30 32 32 31 30 30 29 27 27 27 26 25 25 25 24 25 24 23 23 23 22 20 18 16 15 14 12 9
1 0 1 2 2 2 1 2 2 2 2 1 3 5 5 5 6 5 6 6 4 5 6 7 8 9 9 10 12 15 16 13 13 15 13 12 15 20 23 24 23 23 26 28 27 26 27 28 28 28 28 29 30 30 30 29 28 29 31 32 32 31 30 30 29 28 28 27 26 26 26 26 25 24 23 21 21 21 22 22 20 17 15 13 10 8
Wind_Direction
199 209 218 212 210 202 207 219 221 224 236 237 212 199 213 221 237 231 215 220 216 200 202 207 209 217 221 221 227 205 97 106 124 134 142 144 142 135 135 144 147 148 151 157 163 168 171 169 156 151 153 149 153 160 165 189 185 166 165 164 162 167 166 160 161 167 172 171 166 169 172 167 164 164 164 165 164 168 167 162 158 149 138 140 151 148
203 217 216 207 210 206 206 216 225 228 234 242 232 205 209 211 226 236 232 226 213 195 195 201 211 225 223 223 220 165 114 132 144 143 155 147 136 136 139 146 146 136 132 150 165 172 171 168 156 154 159 156 159 163 163 179 179 168 172 171 164 167 171 168 167 173 177 176 172 174 174 166 159 161 163 161 159 162 161 159 158 156 155 151 148 144
208 221 208 202 213 215 208 210 220 230 232 239 242 227 217 204 210 227 238 240 218 192 193 195 204 229 231 236 212 150 134 160 165 158 160 148 142 151 148 145 141 135 145 159 172 178 173 169 163 163 165 164 167 166 162 174 185 179 178 174 169 170 174 175 174 178 181 178 179 180 176 167 161 162 164 161 158 158 158 158 156 153 152 149 148 149
204 211 197 199 210 218 217 209 213 226 234 237 236 234 244 228 211 210 230 242 227 190 176 185 195 224 231 248 71 129 146 158 164 155 155 154 154 159 154 149 147 149 160 170 177 179 172 173 172 164 161 163 169 168 164 172 184 187 183 175 172 174 176 178 178 181 182 178 176 176 173 168 162 159 160 160 157 157 158 156 151 143 140 145 148 144
202 189 188 199 205 211 219 212 206 214 232 240 237 229 241 247 240 225 220 233 226 189 163 166 186 229 218 141 82 100 129 133 134 133 151 161 151 147 144 145 152 158 164 171 178 183 175 177 176 161 159 165 169 172 172 173 179 186 184 175 173 175 176 176 177 180 179 173 167 163 159 157 155 154 156 155 151 151 154 154 149 140 137 140 134 124
209 185 184 200 204 205 215 215 202 202 218 238 239 229 233 248 252 249 230 213 196 201 181 154 167 243 220 137 127 127 124 131 136 150 163 161 147 143 144 149 158 163 168 173 178 180 173 175 174 163 163 167 169 175 176 174 176 179 176 170 169 171 171 169 172 175 173 168 164 160 156 153 151 153 157 155 151 148 145 145 144 134 121 114 107 101
210 189 185 197 202 202 212 220 205 200 205 227 231 227 234 248 257 262 250 224 179 195 207 166 151 236 231 146 153 150 145 150 152 166 173 162 156 153 153 158 161 167 173 172 171 172 167 171 176 171 169 166 167 174 177 173 168 166 166 164 166 170 168 164 167 170 169 166 164 163 162 161 157 155 156 154 152 149 139 134 130 120 106 97 96 91
208 196 187 192 199 202 208 217 210 202 206 219 223 229 235 241 250 260 261 254 222 162 190 193 151 153 238 190 170 153 145 153 160 167 172 169 168 163 163 166 165 168 168 162 166 172 169 175 179 171 161 155 154 161 165 155 135 141 153 157 165 172 169 165 167 168 168 165 162 161 161 161 160 155 152 148 146 144 136 125 114 106 100 92 89 85
207 207 188 186 199 205 203 211 210 203 207 212 216 231 239 238 245 253 262 271 245 148 183 211 161 156 239 195 158 151 145 159 171 169 174 176 177 175 171 172 170 166 163 157 159 159 160 176 172 147 134 131 126 126 129 121 119 132 144 153 164 170 168 168 167 165 164 162 159 159 157 157 158 153 147 143 137 133 125 115 108 104 98 92 93 94
204 221 197 186 197 205 199 205 211 210 205 201 216 232 242 241 242 246 252 270 248 181 193 204 167 156 248 156 156 165 158 170 181 177 180 176 172 178 175 175 172 164 162 155 150 152 156 161 147 127 129 130 120 122 128 123 123 135 148 159 162 164 167 168 166 162 159 158 158 159 158 158 156 147 139 136 131 127 120 113 111 108 102 98 100 103
200 219 214 194 193 199 195 198 212 217 197 188 216 237 245 242 244 249 246 137 205 246 215 192 170 152 220 220 173 182 183 175 176 179 179 171 168 174 174 176 175 165 162 153 152 151 135 137 133 124 131 128 113 127 138 132 132 149 163 162 157 162 166 166 167 164 160 160 161 162 161 156 151 143 137 136 134 129 123 118 116 113 109 108 107 106
203 204 217 202 184 189 197 195 207 218 203 191 208 221 234 245 276 277 274 93 164 261 253 200 179 159 189 243 191 184 186 173 172 177 176 173 172 175 175 173 171 162 155 151 153 142 114 124 128 118 124 130 124 136 146 144 145 154 163 160 157 163 167 169 173 169 163 159 159 161 157 149 146 142 136 137 139 133 124 118 117 116 114 112 109 106
214 200 207 200 178 185 200 191 195 214 211 207 209 194 194 204 220 234 244 218 184 241 246 196 179 177 191 230 208 176 173 173 178 178 170 169 171 174 174 168 164 155 149 149 148 135 117 125 128 119 127 139 143 148 152 151 145 143 152 160 160 164 168 172 174 170 163 154 149 150 147 143 142 137 127 125 128 125 118 114 114 113 112 108 101 95
217 204 199 195 178 185 202 188 184 207 201 207 212 177 164 166 187 219 220 185 190 246 248 188 170 205 196 230 220 170 168 177 181 177 168 167 170 171 169 159 152 150 147 143 137 135 132 137 134 128 136 149 153 149 147 153 152 146 151 160 159 159 163 162 158 158 154 144 139 140 140 138 135 129 124 120 120 119 116 113 110 108 108 103 95 87
197 202 192 197 176 177 201 198 178 189 177 202 215 176 189 190 171 201 168 138 212 242 252 173 165 186 166 230 223 169 166 171 167 167 162 163 164 159 151 143 143 149 145 137 142 147 139 134 131 128 138 151 150 145 146 158 159 149 148 156 155 155 156 151 148 148 145 137 132 133 134 134 133 129 125 121 121 121 117 113 108 105 104 98 89 80
203 208 182 198 182 167 195 210 175 176 170 200 214 192 222 227 149 160 157 152 169 196 242 191 196 195 171 268 287 146 157 158 149 149 147 151 150 143 142 143 148 155 151 149 154 145 125 121 125 128 139 148 150 152 155 160 159 146 145 151 152 153 153 148 145 143 140 135 133 133 134 134 134 131 127 121 120 121 118 114 107 101 98 91 81 70
205 207 169 187 196 176 193 209 178 178 177 195 214 207 227 246 136 124 150 128 93 99 267 237 282 344 96 311 338 137 153 149 142 146 146 149 145 141 146 149 156 163 162 158 145 124 119 119 122 131 145 155 161 161 154 153 153 144 143 146 146 147 146 142 140 138 137 136 133 134 135 135 135 132 129 124 119 119 118 116 110 101 93 86 79 73
179 190 175 184 199 191 189 193 187 189 170 173 205 205 225 263 238 130 133 170 102 146 276 255 235 259 133 276 323 140 148 141 138 145 146 147 144 144 152 156 162 165 155 137 114 112 119 121 129 144 155 159 159 157 153 151 147 140 139 142 141 141 140 139 138 136 138 138 134 134 134 132 131 130 130 129 123 119 116 112 108 102 91 83 82 80
174 164 180 179 180 189 173 129 292 262 228 193 194 180 170 225 241 144 133 166 154 166 302 280 243 227 157 200 149 132 149 147 140 144 145 147 147 148 154 157 157 150 133 118 115 119 122 129 145 155 155 151 149 154 155 146 137 135 138 140 140 139 139 138 138 137 138 137 135 133 131 129 127 126 126 127 123 117 110 104 101 99 93 86 87 88
176 132 153 165 148 147 132 113 180 248 263 251 211 193 204 205 184 147 147 164 155 162 240 271 247 244 216 192 149 140 154 148 142 149 150 150 152 154 156 157 153 139 129 128 127 128 130 140 153 154 148 146 146 151 149 137 132 135 139 140 138 136 135 136 136 136 134 133 132 129 127 127 127 126 124 120 116 110 104 103 105 103 99 97 100 102
161 117 137 164 135 135 176 193 193 202 219 236 210 192 207 211 160 156 194 189 148 149 181 200 239 260 273 252 160 155 154 149 150 155 155 152 154 159 162 157 148 135 132 134 130 130 136 142 148 147 144 144 145 145 141 133 132 135 137 138 137 134 134 134 133 133 132 132 133 130 128 128 128 127 122 116 111 107 106 110 113 113 109 104 106 111
160 112 139 172 152 156 192 195 195 211 216 208 201 189 190 179 149 143 246 246 163 142 167 168 223 264 275 313 254 168 151 150 153 153 154 155 155 162 166 154 142 136 136 137 132 131 138 143 145 141 138 142 144 141 136 132 131 134 136 137 137 135 135 135 134 134 134 132 130 127 126 126 126 125 122 116 110 106 108 109 110 117 118 107 105 109
132 104 132 166 170 175 191 183 196 222 235 224 215 213 179 168 148 133 172 220 200 187 176 152 198 260 273 318 295 177 148 146 149 150 152 157 160 164 159 141 132 133 134 133 132 134 140 144 144 139 137 141 143 137 134 133 132 135 136 136 135 133 133 135 134 132 131 127 122 120 121 121 121 122 120 116 111 107 103 99 99 107 112 109 110 111
83 96 143 159 175 187 197 199 205 222 237 231 216 210 183 179 166 147 171 200 210 208 183 149 183 255 297 335 347 124 122 118 136 148 148 149 159 156 143 130 128 132 129 127 131 134 138 143 143 141 139 141 142 138 136 134 132 133 134 134 133 131 133 135 131 128 126 121 115 114 116 115 116 117 114 111 111 110 105 103 105 106 108 110 109 103
125 144 155 156 170 174 187 202 206 215 224 227 208 201 206 189 174 195 257 273 270 234 163 142 184 247 291 347 40 69 77 74 104 142 142 141 151 144 130 129 132 132 130 129 132 133 137 144 145 140 141 143 141 137 134 133 133 134 135 134 133 131 133 133 129 125 122 118 114 112 112 112 114 114 113 110 110 113 112 110 111 112 113 113 104 99
155 150 142 145 165 171 185 202 190 193 204 269 274 205 210 202 181 196 224 188 259 251 160 135 163 239 329 22 56 70 77 75 89 126 135 141 149 141 133 136 135 133 133 134 135 136 139 146 144 141 143 143 139 134 133 134 136 135 135 134 133 132 131 131 129 124 121 119 116 113 112 112 114 116 121 120 116 117 116 114 116 119 118 114 106 103
126 148 151 138 158 175 183 177 148 155 174 210 279 246 220 214 187 181 188 186 209 233 209 174 146 120 50 34 70 86 91 87 93 116 129 136 138 132 131 132 127 128 133 135 135 132 133 137 139 141 142 140 137 135 135 137 136 134 133 131 131 132 132 131 130 126 123 122 120 118 119 121 123 126 128 129 128 126 124 124 124 122 123 120 111 105
107 154 183 162 198 208 185 158 170 186 194 196 242 266 238 218 195 173 194 206 170 139 247 206 131 123 109 76 94 101 105 105 106 115 123 125 122 120 121 121 121 126 129 131 130 126 126 130 132 134 137 136 136 134 132 130 129 129 130 129 130 132 133 133 133 129 127 126 125 125 128 130 131 129 129 130 130 127 126 125 118 109 113 116 109 102
107 163 195 184 241 234 195 186 180 184 206 210 218 244 245 227 210 182 186 208 149 138 194 175 131 136 147 145 135 118 114 112 107 106 106 107 109 113 118 121 125 130 130 127 127 127 129 130 129 130 133 133 131 128 125 123 123 125 126 128 131 133 134 135 133 130 130 130 130 131 133 134 133 132 133 133 130 127 123 118 109 104 107 108 104 100
103 176 200 180 243 261 221 209 191 177 195 219 220 227 232 228 223 203 189 209 150 142 160 151 141 155 161 147 140 124 113 108 103 99 98 102 110 116 123 128 129 130 129 125 126 130 131 132 133 133 133 133 131 129 126 123 123 124 125 129 132 134 136 136 133 130 130 130 131 134 135 136 136 137 140 140 135 130 122 116 112 108 105 105 102 100
91 154 257 143 231 279 265 235 200 174 184 206 225 228 224 234 248 231 204 197 167 163 164 140 130 149 179 135 129 123 120 116 114 116 117 120 125 127 130 135 133 130 128 126 126 129 132 134 136 136 136 137 134 131 129 127 126 126 127 130 133 135 138 138 134 133 133 132 134 139 141 142 143 143 142 139 133 126 122 121 119 111 106 107 105 102
98 26 348 62 69 291 274 278 326 178 178 191 221 236 231 233 244 230 198 175 169 171 153 126 120 140 146 121 119 126 130 128 130 134 136 139 142 142 144 145 139 134 133 133 132 134 137 138 139 139 138 136 135 134 134 134 133 132 132 134 136 138 141 141 140 139 138 139 145 150 151 151 150 146 141 137 130 125 124 126 123 116 113 110 107 105
109 83 20 64 69 287 268 87 30 31 158 185 229 251 239 225 217 225 204 165 163 145 132 144 160 163 149 132 126 135 138 136 141 142 141 144 145 147 149 146 142 141 141 141 140 141 144 143 141 140 138 136 136 138 140 141 140 141 142 142 142 143 143 143 144 144 142 146 153 157 158 158 154 149 145 141 134 129 127 129 127 124 121 114 109 107
103 105 75 54 117 273 289 74 62 42 143 214 261 285 243 192 198 220 223 189 178 140 121 144 155 150 149 143 140 146 148 143 143 143 143 146 144 144 145 145 147 147 145 145 144 145 146 143 140 139 138 138 139 140 144 146 147 149 150 148 146 146 146 146 146 148 149 153 158 161 161 158 152 147 144 140 137 134 133 134 131 128 124 118 112 107
105 101 31 328 140 251 338 64 76 264 232 245 276 295 35 81 78 37 270 224 193 146 118 127 142 146 145 139 134 135 136 133 134 141 148 150 147 143 142 146 151 147 144 146 146 146 147 144 140 138 138 141 143 143 145 146 147 150 151 149 148 147 147 148 149 151 153 156 160 160 154 148 145 144 143 143 144 144 141 138 133 128 124 118 110 104
123 108 101 329 196 231 27 73 129 225 258 291 313 324 357 46 50 33 346 285 227 163 136 135 142 134 123 122 125 126 125 123 124 137 150 150 145 141 139 144 148 143 144 150 147 144 145 143 140 139 142 144 143 144 145 145 147 148 145 146 149 149 148 149 149 150 151 155 157 153 148 149 151 151 149 147 145 141 135 130 125 120 118 114 109 104
114 105 94 10 346 115 108 113 139 311 323 325 321 318 27 58 62 80 56 286 271 188 149 141 131 122 118 118 124 125 116 109 105 116 142 142 138 138 138 142 147 145 146 149 145 141 142 141 140 141 143 143 143 144 146 147 149 146 141 144 149 148 147 147 147 149 153 156 155 149 148 151 150 146 144 137 131 128 126 123 121 119 117 114 110 108
126 127 119 114 309 80 102 98 61 41 307 275 267 269 96 82 66 96 104 292 298 310 144 144 138 135 131 125 128 127 114 112 128 148 147 139 135 136 138 143 150 148 144 143 141 139 141 140 139 140 141 140 141 145 147 148 147 144 142 146 145 142 144 146 146 150 153 150 146 144 145 145 142 142 141 132 125 123 123 121 121 122 121 115 111 110
166 142 103 98 23 17 99 121 134 155 233 253 276 309 3 47 35 61 76 278 297 344 86 147 146 143 140 139 140 134 122 137 171 179 155 144 139 139 142 145 150 147 144 144 142 139 139 139 138 139 139 139 141 147 150 149 146 143 143 145 140 136 139 143 147 150 148 143 142 143 145 145 144 145 142 134 127 127 127 126 123 120 117 112 109 108
178 110 75 89 47 333 123 135 170 189 247 261 294 329 342 19 51 79 147 255 292 346 359 150 151 148 146 145 146 147 154 178 182 167 156 148 142 143 144 146 148 145 142 143 143 142 141 140 139 140 141 142 146 150 151 148 144 141 141 142 141 139 138 140 144 147 144 141 143 145 148 149 146 142 138 134 131 131 132 131 128 124 120 115 112 109
113 75 93 119 126 298 144 124 280 254 265 268 322 335 356 35 55 104 197 245 286 336 338 157 155 154 151 151 158 170 173 159 139 141 145 141 136 139 141 141 143 143 141 140 141 141 142 143 144 146 147 149 150 151 150 146 141 139 139 139 139 139 138 138 139 140 139 140 142 144 145 145 140 135 135 136 136 137 137 137 134 130 127 124 121 118
50 52 86 120 200 277 202 139 88 305 279 249 20 3 34 62 86 207 224 254 282 341 357 153 153 154 157 158 161 156 130 117 124 136 143 140 138 140 140 139 140 142 142 141 142 143 142 144 146 148 150 151 149 149 150 144 136 133 133 131 129 131 134 135 136 136 136 137 137 137 138 138 136 134 134 136 136 134 134 135 133 129 130 131 129 127
192 131 111 187 192 196 45 82 97 255 258 201 87 25 38 109 198 225 261 291 321 18 28 159 159 161 164 153 125 114 119 122 130 137 138 137 137 139 140 142 142 142 143 144 146 148 146 145 148 150 153 154 150 148 147 141 131 127 126 123 125 131 133 134 135 135 134 133 133 133 134 135 135 134 134 133 130 127 126 128 127 127 130 134 133 134
294 113 151 232 249 135 130 225 211 233 254 102 98 121 195 169 209 235 314 341 1 22 20 158 151 147 144 128 114 118 123 127 133 134 133 135 138 139 142 144 143 144 147 149 152 151 148 148 149 149 149 150 147 146 145 139 130 125 125 126 131 135 135 134 134 133 132 132 132 133 133 134 135 136 135 134 131 129 128 129 131 133 134 134 134 135
295 262 161 146 4 121 160 221 254 315 15 38 77 120 121 28 350 351 44 43 20 22 35 101 114 108 111 118 121 125 128 133 136 136 135 139 141 142 145 146 145 147 151 153 152 150 149 148 146 140 137 139 142 143 144 142 135 129 129 133 137 137 137 136 136 134 132 132 132 133 134 135 136 137 137 138 137 136 137 138 140 142 143 142 142 140
284 307 168 126 81 100 106 326 357 40 26 11 16 31 46 34 6 7 39 43 31 41 46 71 111 117 120 123 124 126 131 133 132 132 135 138 141 143 143 145 147 150 153 151 148 147 148 146 141 135 131 135 140 143 144 146 144 138 136 140 141 141 141 140 138 137 136 136 138 141 142 142 142 142 142 142 142 142 143 145 145 146 147 148 147 144
321 348 5 62 91 80 355 337 20 53 35 9 7 354 356 18 11 8 35 39 35 68 79 75 88 105 115 119 122 127 133 132 130 134 139 139 141 144 144 146 151 152 151 147 144 146 148 144 137 133 131 134 140 143 144 147 147 145 144 144 144 144 145 143 142 143 144 145 146 148 148 146 146 144 139 136 137 136 135 136 136 132 127 127 130 130
317 337 352 23 58 54 252 255 58 69 63 37 34 352 344 7 5 0 22 40 43 68 97 109 101 97 107 119 126 129 132 134 135 138 141 141 142 144 147 151 152 150 148 147 147 149 151 145 138 135 134 136 140 144 146 147 148 148 148 148 149 149 147 147 148 149 150 150 149 147 146 144 141 135 128 126 127 126 124 126 130 123 111 107 114 119
251 307 340 33 53 10 310 339 50 48 14 338 331 341 353 5 16 9 5 25 52 64 85 106 114 119 124 131 135 132 133 138 140 138 141 144 145 148 152 154 152 149 149 150 152 153 151 146 142 139 137 138 142 145 147 148 149 150 152 153 155 154 151 151 152 152 152 149 144 141 140 138 133 128 125 122 120 117 115 119 125 123 112 106 110 119
191 323 349 61 86 69 301 359 39 97 117 293 300 359 12 9 27 24 357 0 44 76 97 111 120 127 132 138 140 135 135 141 145 143 145 148 149 153 155 154 151 150 151 152 152 151 148 145 142 140 139 141 145 147 148 149 152 154 155 156 157 156 154 153 152 151 150 145 139 138 138 134 129 127 126 124 122 118 113 112 116 122 120 113 112 120
335 294 51 87 122 197 188 45 40 105 147 283 340 13 21 18 26 17 341 337 29 83 98 112 128 135 135 140 142 139 139 143 146 147 148 149 152 155 155 154 153 151 152 153 150 146 143 143 143 141 142 145 148 149 151 153 154 154 155 157 158 158 157 154 151 149 148 142 139 141 140 135 132 131 129 130 132 129 122 115 112 114 118 119 120 128